Theta_e
344 345 346 347 346 346 345 346 345 345 346 348 350 350 354 354 357 358 360 360 358 357 355 354 353 354 355 355 355 358 361 363 362 364 364 364 367 365 367 365 367 365 364 364 363 362 362 361 362 361 361 360 359 360 362 362 364 364 364 363 360 359 358 357 357 358 355 349 352 349 350 352 353 355 352 350 349 351 350 351 351 352 352 354 357
345 344 345 345 344 345 346 347 348 345 348 349 351 350 355 356 356 358 359 361 358 357 356 356 358 356 355 355 356 357 361 359 361 362 361 364 367 367 367 367 366 363 362 363 363 362 361 359 360 359 359 359 360 363 363 362 363 363 362 360 362 359 357 356 355 355 352 342 343 343 345 348 351 349 347 346 346 347 349 350 350 349 349 351 355
343 343 345 343 344 345 346 348 348 348 349 349 352 351 355 355 357 360 359 359 360 359 359 358 359 360 357 356 355 357 361 362 359 362 363 363 366 365 364 365 364 363 363 362 362 361 361 360 359 359 360 362 360 360 360 361 363 362 362 359 355 357 359 358 358 357 346 345 348 347 338 339 345 345 346 345 345 345 347 345 347 347 347 351 354
342 343 342 343 343 346 347 348 349 349 351 350 350 351 354 356 358 361 361 361 361 362 362 361 361 363 363 362 361 360 359 361 363 363 364 364 364 365 366 363 362 362 361 360 362 363 362 361 362 361 362 363 363 360 361 362 365 364 361 361 361 353 351 351 354 356 356 348 340 341 340 338 333 338 343 344 343 344 344 344 346 347 349 353 355
343 343 343 343 343 344 347 348 349 348 349 350 350 349 349 353 358 363 362 361 362 364 364 363 363 364 363 364 363 362 363 362 360 358 362 363 364 364 363 366 364 364 364 364 364 364 362 362 363 363 363 362 364 364 361 361 363 363 363 362 360 355 345 346 350 352 355 355 347 342 339 337 337 338 340 340 344 342 343 343 343 347 348 352 351
345 344 344 343 344 345 348 349 348 348 349 351 351 350 351 353 359 363 363 362 361 365 366 364 363 359 356 356 354 354 354 355 354 354 354 356 357 362 365 365 365 367 366 365 366 365 363 363 365 366 366 364 365 365 365 364 363 363 363 363 358 359 358 347 345 353 351 356 355 349 348 342 341 342 341 335 347 343 344 343 346 346 348 351 354
345 345 345 343 345 345 347 348 348 348 350 351 352 353 354 356 359 362 363 363 363 367 367 365 362 357 356 354 354 354 353 356 361 358 356 356 361 362 364 366 366 364 365 366 366 367 366 366 366 367 367 368 368 368 365 363 361 361 362 360 359 361 358 350 346 346 351 353 350 349 350 351 348 347 339 341 338 342 345 342 344 345 346 348 349
343 344 345 345 346 345 346 348 348 347 350 351 351 352 357 359 361 361 362 362 364 367 367 366 361 358 358 356 355 355 353 357 362 364 363 364 361 363 365 365 367 365 365 369 369 368 367 366 367 368 368 368 368 367 366 363 363 362 363 362 363 362 359 352 347 346 344 346 352 350 351 352 355 352 349 346 342 339 339 344 346 345 346 346 346
345 343 344 345 345 346 347 348 349 349 349 350 352 354 357 361 363 364 361 363 364 367 367 367 364 361 359 357 356 357 357 358 362 362 362 363 363 363 366 366 367 367 367 367 370 370 370 369 367 368 369 368 370 368 365 367 367 363 363 363 362 361 358 355 354 350 348 347 349 351 351 352 352 351 352 353 345 340 337 339 341 345 346 346 348
344 344 345 346 346 347 348 349 349 348 349 352 353 354 357 361 363 364 363 363 364 367 366 367 365 364 360 358 358 359 358 359 360 360 361 364 361 364 365 366 364 366 368 369 369 371 371 371 368 368 368 367 366 368 367 369 367 367 365 363 361 359 357 356 353 351 349 350 351 352 351 350 351 349 346 345 344 347 339 338 341 341 341 343 349
343 345 346 347 347 347 348 347 349 349 349 351 351 353 356 359 363 363 365 364 365 366 366 365 365 363 362 360 360 360 360 360 359 361 361 362 361 362 363 364 364 364 364 366 368 369 372 371 368 368 368 370 369 371 369 366 365 364 364 365 363 361 356 355 353 355 353 353 351 351 350 347 348 347 347 346 345 343 342 340 340 342 341 342 346
344 344 346 347 347 347 347 348 348 349 349 350 351 352 354 358 361 363 365 365 365 366 365 364 361 362 362 362 361 361 362 358 359 359 360 361 360 361 364 363 364 364 366 365 363 363 370 370 371 371 369 370 370 371 372 369 366 366 363 365 364 363 362 360 356 353 351 352 351 349 348 349 351 349 348 349 349 349 347 343 342 344 344 344 344
345 346 347 347 346 346 346 348 349 349 349 350 350 351 353 357 360 362 363 365 366 365 365 364 363 361 361 361 362 362 362 362 360 359 361 360 359 360 363 362 362 363 365 364 363 363 367 369 370 370 371 371 372 372 372 372 369 367 368 365 363 362 361 361 356 354 353 351 349 350 349 350 350 352 351 349 350 351 350 344 343 343 339 342 345
346 346 346 348 347 347 348 348 348 349 349 349 350 351 353 355 359 360 362 364 366 365 365 365 364 363 363 361 362 362 362 362 361 358 359 360 360 360 359 357 361 361 362 363 364 365 365 366 369 371 374 375 377 376 375 373 374 370 369 366 362 363 362 362 359 356 356 355 354 351 349 348 348 351 351 350 349 349 347 344 347 346 343 341 344
346 345 343 344 346 349 348 348 348 349 348 348 350 352 354 355 358 360 362 364 365 364 364 364 363 364 363 361 361 363 360 361 360 360 360 360 359 359 360 358 357 360 360 364 366 367 367 369 368 368 371 376 375 375 373 374 376 371 371 370 367 363 364 362 358 356 352 353 355 354 351 351 350 352 350 351 354 353 350 349 348 344 340 339 341
338 341 346 346 349 350 349 349 349 349 351 350 350 352 352 355 359 360 361 363 363 364 364 364 364 363 365 364 361 362 362 361 361 362 362 361 362 360 362 362 361 362 365 365 366 366 366 366 369 367 370 371 374 374 375 371 374 369 369 368 367 363 364 364 362 359 354 356 353 355 354 351 354 352 354 355 355 357 354 354 353 351 344 338 339
337 339 340 346 345 349 349 350 349 349 350 350 352 353 354 355 357 359 361 363 363 364 363 364 364 364 364 364 361 360 359 359 357 360 358 361 362 361 359 360 360 363 364 365 365 367 368 367 366 364 367 370 372 372 372 373 376 372 368 368 365 365 364 364 362 362 360 355 355 354 353 353 356 358 356 357 362 360 355 354 353 349 352 346 341
337 339 340 344 348 349 349 349 350 349 350 351 353 353 355 356 357 358 359 360 362 362 361 362 364 364 365 364 363 360 357 355 355 356 359 358 360 361 359 359 359 359 360 358 363 366 367 367 366 366 365 367 368 369 370 372 374 368 368 370 367 369 367 366 364 362 360 359 356 356 354 353 356 357 355 358 362 361 356 357 355 357 358 351 349
334 337 339 343 345 346 349 349 350 351 352 351 351 351 353 355 356 356 357 358 359 359 361 362 363 362 362 364 363 361 358 357 355 357 359 358 356 358 358 357 359 361 363 363 364 363 365 367 367 366 366 367 368 367 369 370 372 369 366 367 367 370 369 366 366 363 359 358 358 355 356 354 357 356 358 358 360 359 357 356 356 358 358 359 358
332 334 338 340 344 346 347 348 348 348 349 351 350 350 350 353 355 354 356 358 360 359 360 360 361 361 360 364 364 364 362 359 359 358 357 358 358 356 357 354 358 358 361 364 362 360 361 362 362 361 362 363 365 365 365 368 370 369 367 364 364 368 367 366 365 364 359 360 359 358 359 358 357 358 358 357 357 360 358 355 356 359 360 362 361
333 333 335 339 342 346 347 348 348 348 350 351 349 350 351 351 351 353 354 354 355 356 357 360 361 361 362 362 362 363 361 360 359 359 359 359 359 359 355 356 359 358 359 360 360 360 361 360 358 360 359 362 365 364 365 368 369 368 367 367 367 369 368 365 365 364 362 361 362 360 360 361 362 359 357 355 354 355 359 357 358 358 355 360 361
333 333 334 337 340 342 345 348 350 347 348 348 349 350 350 350 350 352 352 352 353 355 357 359 361 360 360 361 362 362 363 361 358 357 359 358 358 359 358 358 355 359 359 357 360 359 361 360 357 358 361 361 365 367 363 365 367 367 367 364 364 366 367 365 364 364 364 362 363 363 361 360 363 360 359 355 354 351 354 352 354 354 354 356 362
328 331 333 335 339 339 341 344 346 348 350 349 349 347 348 349 349 350 350 352 353 354 356 359 359 360 361 361 361 361 362 360 357 356 355 354 356 358 359 358 355 354 359 358 356 356 359 362 361 360 363 362 365 366 365 364 364 365 365 363 362 364 365 364 361 363 362 364 362 363 361 362 359 360 360 358 355 354 353 353 352 355 357 355 359
327 329 330 334 336 336 337 340 341 343 348 349 352 349 348 348 348 349 349 351 352 353 354 357 359 359 360 361 361 360 359 359 356 355 354 354 353 355 358 358 356 353 353 359 357 356 358 364 363 362 364 365 364 365 364 362 363 364 365 365 364 364 365 364 362 361 360 360 360 362 361 360 360 360 361 360 358 356 357 358 358 360 361 360 362
325 326 328 331 333 334 334 336 337 340 343 347 350 350 349 349 349 348 349 350 351 354 353 355 357 357 357 359 359 358 358 358 356 354 354 353 352 352 355 357 356 353 352 354 359 359 359 363 359 359 361 364 363 364 363 359 359 361 362 361 362 364 364 364 363 363 363 362 361 360 360 361 361 359 360 360 359 361 360 358 358 359 360 361 363
324 325 325 327 330 333 334 334 335 337 339 344 346 349 349 352 350 350 349 350 350 352 352 353 355 355 356 357 358 358 356 357 356 355 354 354 353 352 352 355 356 354 353 352 356 358 357 361 362 358 359 363 365 365 366 365 359 359 361 360 360 362 361 363 364 363 363 363 362 363 361 361 360 359 359 359 362 363 364 360 359 360 361 363 365
323 324 324 325 326 328 331 332 332 333 337 340 344 346 348 352 352 352 350 350 352 352 353 352 354 354 356 356 357 358 357 356 357 357 355 355 354 353 352 353 356 355 352 351 352 358 358 358 362 359 356 360 364 363 365 367 364 361 359 362 356 357 360 361 362 361 361 362 362 361 363 362 361 361 360 361 363 365 363 364 365 365 364 365 364
323 324 324 323 323 325 326 330 331 331 333 336 341 346 348 350 351 352 354 349 350 352 352 353 354 355 357 356 357 359 358 358 358 360 358 356 355 355 355 355 356 356 353 351 350 352 357 358 358 358 357 358 363 364 365 367 366 361 358 360 362 358 355 357 358 360 359 358 359 360 359 361 362 364 363 363 363 362 365 364 364 365 365 365 364
320 322 324 325 324 323 323 325 327 328 330 334 335 340 345 349 351 353 353 355 353 352 352 352 354 355 357 359 360 360 360 360 359 360 359 358 357 357 357 357 358 357 354 353 351 350 353 356 358 358 357 356 355 361 362 364 365 365 360 357 360 361 357 355 356 356 356 357 356 357 359 358 364 369 368 367 366 365 362 362 364 365 367 365 365
319 321 321 324 324 324 323 324 324 325 327 329 333 336 338 345 348 349 352 354 356 355 353 352 352 355 358 360 361 362 362 362 360 360 361 360 358 358 356 357 357 357 358 358 357 354 351 352 356 358 358 356 354 356 360 349 353 363 363 355 356 361 361 358 356 355 353 353 354 354 354 366 367 370 368 362 356 358 360 361 363 367 366 366 364
320 321 321 323 324 324 324 324 323 323 324 325 329 333 337 338 345 348 350 352 354 357 355 352 353 356 358 361 362 362 363 362 362 361 361 361 359 358 358 359 359 359 359 361 358 355 353 352 352 356 357 356 355 354 347 338 338 344 359 362 359 359 363 362 358 357 356 352 351 353 354 362 369 368 368 355 351 347 349 348 350 356 365 371 366
319 320 322 322 323 323 324 325 324 324 323 324 327 331 334 336 340 344 347 351 353 354 354 355 355 357 357 359 362 364 363 362 363 362 362 363 360 359 359 360 358 358 361 359 358 357 357 354 352 354 355 357 357 347 335 334 336 336 346 359 358 358 357 359 359 355 354 354 353 350 350 351 356 362 364 369 359 349 344 345 344 345 348 350 353
320 320 321 321 323 324 325 325 325 325 323 323 326 328 331 333 337 341 344 347 350 352 355 355 356 357 359 362 362 360 362 362 363 363 363 363 362 360 359 358 357 359 359 360 360 358 358 357 355 354 353 355 357 343 331 331 333 333 334 347 352 355 354 354 356 357 356 355 356 355 352 350 349 369 367 367 372 368 346 340 342 344 345 344 340
321 321 321 322 323 324 326 326 327 326 324 324 326 328 332 335 336 339 340 342 344 350 353 354 359 358 358 359 360 358 357 360 362 363 363 362 361 361 358 357 358 359 359 359 359 359 359 361 359 357 357 356 356 345 329 328 329 329 331 339 355 350 351 352 354 355 355 357 357 357 357 356 354 357 365 366 368 372 373 364 360 360 362 358 345
321 322 323 323 323 324 326 327 326 326 325 324 325 328 332 335 335 335 336 338 339 342 347 350 353 356 358 357 360 359 357 357 360 362 363 362 361 361 360 358 356 357 358 359 359 359 359 360 359 358 357 356 355 337 326 325 324 325 327 333 356 352 349 350 352 355 359 358 360 358 360 359 362 361 359 366 367 367 371 373 371 366 365 366 367
318 321 322 324 324 324 324 326 328 326 324 325 326 328 330 333 335 335 334 335 336 337 337 342 347 349 351 354 356 357 358 359 360 361 361 361 361 362 361 360 358 356 358 359 360 360 359 359 359 359 357 357 357 334 325 322 322 322 325 348 357 355 353 352 352 354 357 361 362 361 361 362 362 364 360 347 357 368 367 368 369 370 369 368 366
318 318 320 324 325 325 325 327 328 326 325 326 327 328 330 332 334 335 335 334 335 335 335 335 337 342 345 348 352 354 359 359 357 358 359 360 360 361 362 362 359 357 355 356 359 359 361 359 359 359 358 358 358 342 323 320 319 320 327 352 356 356 356 355 354 356 357 360 361 364 364 361 362 365 353 335 338 353 365 364 366 367 366 364 362
316 318 319 322 323 324 325 325 326 328 328 329 328 327 329 331 331 332 334 333 334 335 335 334 334 336 339 343 347 351 354 358 360 357 357 358 359 360 359 362 360 358 355 356 358 359 361 361 359 358 358 358 359 345 320 319 318 317 333 354 355 355 356 356 356 357 357 359 362 361 367 365 363 363 342 331 332 351 364 363 362 362 364 363 364
315 315 316 318 320 323 324 325 324 325 328 331 329 328 327 330 331 331 332 332 332 334 335 334 333 334 336 338 341 347 351 353 357 357 356 357 357 359 360 361 361 360 359 359 359 358 359 361 360 359 354 356 359 348 319 319 317 316 333 356 356 356 356 357 357 357 359 359 361 362 359 357 361 357 336 329 328 347 365 364 363 361 360 360 361
316 317 318 319 320 321 322 322 322 325 327 329 329 327 328 328 330 332 332 331 332 332 335 337 337 336 336 337 340 342 346 349 351 352 355 356 357 357 359 360 361 361 361 360 359 359 358 359 361 360 359 358 358 361 347 317 316 314 320 355 357 355 356 357 359 358 359 361 360 362 360 335 333 333 331 323 324 329 361 365 365 361 360 358 362
316 317 320 318 318 317 318 320 323 326 325 326 327 327 327 328 328 330 331 331 333 334 334 336 336 337 336 337 338 339 339 342 346 349 351 354 354 354 355 356 358 359 361 361 360 360 358 359 360 361 361 361 360 360 365 316 315 314 316 330 357 357 358 358 359 359 359 359 361 361 363 343 327 326 325 321 318 319 335 364 364 364 363 364 360
318 319 318 318 317 318 318 318 322 324 325 325 327 327 327 328 327 327 329 330 333 334 334 334 336 338 337 336 336 337 339 340 343 346 347 351 351 351 354 353 354 353 353 356 361 360 360 359 361 361 363 362 363 353 363 323 316 313 314 316 350 358 358 359 358 359 360 360 360 361 364 348 325 324 323 321 316 317 320 359 362 336 335 336 368
317 317 318 318 317 317 316 318 320 323 325 326 327 327 327 327 327 329 329 331 331 333 335 333 335 337 339 338 337 336 337 337 339 342 344 346 350 347 349 351 348 349 349 350 350 352 357 360 360 362 364 364 366 365 338 347 318 314 312 313 324 343 335 361 358 358 359 360 361 363 363 351 322 319 318 318 318 317 320 344 331 328 327 328 344
316 317 318 318 318 319 318 320 320 323 326 328 327 327 327 326 327 331 330 331 331 331 332 333 335 337 337 339 338 338 339 339 340 342 345 345 348 349 347 349 351 348 347 345 348 353 350 350 354 362 361 364 368 368 347 335 334 313 312 311 314 321 331 353 358 358 360 360 361 363 358 334 317 313 314 316 318 319 337 325 321 324 326 331 356
315 315 318 318 318 319 319 320 321 323 325 328 329 328 328 327 329 331 331 330 330 331 331 331 333 334 336 337 339 341 341 340 339 342 343 346 346 347 349 351 352 350 347 346 347 348 348 351 352 352 357 360 361 365 367 347 329 318 313 311 312 315 319 324 353 357 361 361 345 334 331 327 317 313 313 315 317 317 317 322 321 322 329 351 355
315 316 317 317 318 319 319 320 322 323 323 326 328 329 328 328 330 332 331 330 330 330 330 330 331 332 333 336 336 338 338 338 337 338 341 344 346 347 348 351 353 353 352 350 348 348 347 346 349 352 355 354 359 363 365 366 341 328 320 313 313 313 317 319 331 349 337 333 329 326 323 322 321 323 337 345 350 348 321 318 321 326 345 350 353
313 315 316 316 318 317 318 319 319 322 323 325 327 328 329 330 331 330 330 330 329 330 330 329 330 329 332 333 336 335 335 337 337 337 338 341 341 344 346 349 352 352 352 352 347 347 347 347 346 349 350 354 357 360 363 366 362 353 347 337 324 325 316 316 328 342 338 347 348 344 348 338 339 333 335 339 341 343 343 336 337 341 347 352 353
315 316 316 317 317 317 317 319 319 321 323 323 324 326 328 328 328 328 328 329 328 328 326 328 329 329 330 332 333 334 334 335 335 335 335 336 338 339 341 345 347 349 349 349 349 347 345 344 344 346 349 353 356 356 359 362 364 363 360 356 346 341 340 337 339 344 348 350 352 339 339 351 355 356 353 355 356 357 354 353 353 351 350 351 351
314 314 316 315 316 316 318 318 319 321 322 323 323 325 328 329 327 327 327 327 327 327 328 327 328 329 329 332 332 333 332 333 334 335 336 337 336 336 336 336 339 342 346 348 349 349 348 349 351 350 347 346 349 352 357 336 354 341 358 364 357 351 350 349 339 330 351 352 354 353 353 353 353 351 352 354 354 354 355 356 357 357 355 354 354
313 314 315 316 317 317 318 318 318 321 322 323 324 326 328 326 326 326 326 325 326 327 326 326 327 327 328 328 329 329 331 332 331 333 334 335 332 320 325 333 333 329 323 317 316 338 345 350 350 351 352 349 349 352 331 320 320 325 323 328 335 331 328 343 333 321 341 352 353 353 353 353 353 355 354 354 353 354 355 355 356 345 355 355 354
312 313 314 315 316 317 318 318 319 321 322 323 324 326 327 327 327 327 325 324 325 325 325 324 325 326 325 325 326 327 329 331 332 332 333 332 333 336 312 309 313 318 315 308 305 306 308 314 332 340 341 328 325 321 315 314 313 315 315 316 318 319 316 319 319 337 345 349 352 353 353 354 354 356 355 355 356 354 353 354 356 357 358 355 352
Wind_Speed
14 16 15 15 14 13 12 12 11 12 11 11 11 11 11 10 10 11 9 8 8 8 7 7 7 7 6 6 6 6 5 4 4 4 4 3 4 4 5 4 5 4 4 4 4 4 3 3 4 4 3 3 2 2 2 2 2 1 2 1 2 1 2 2 1 1 2 0 1 2 2 2 4 2 0 2 3 3 4 3 3 3 4 4 3
15 15 16 16 14 15 13 11 12 13 11 12 12 11 11 11 11 10 9 9 8 8 7 7 7 6 6 6 6 6 6 5 4 4 4 6 5 5 4 4 5 5 4 4 4 4 4 4 4 4 4 3 2 1 2 2 2 2 2 3 2 1 1 0 2 2 1 2 2 3 2 3 2 3 4 4 4 4 5 5 3 2 3 4 4
15 16 17 16 17 16 13 12 12 13 13 13 12 12 12 11 10 10 9 9 8 8 7 7 7 6 6 6 6 5 5 4 3 3 3 5 5 5 5 5 6 5 6 5 4 4 5 5 5 5 4 4 3 3 2 3 3 3 3 2 3 3 1 1 1 2 1 2 2 1 3 4 2 2 3 4 3 4 3 5 2 4 4 3 3
16 16 18 17 17 15 14 13 12 12 12 12 13 13 11 10 10 10 10 10 8 8 8 7 7 6 5 5 5 4 4 4 3 4 3 4 6 5 5 6 7 7 7 7 5 5 5 5 4 5 4 3 3 3 4 3 3 3 4 3 2 2 3 3 1 1 3 2 2 2 2 3 5 4 5 3 5 3 2 5 3 4 5 3 2
15 16 17 17 17 16 15 13 13 13 12 12 12 12 9 12 11 11 9 10 9 9 9 7 7 7 6 5 4 4 2 3 5 5 5 4 5 6 7 7 6 6 6 6 5 5 5 4 4 5 5 4 3 3 4 4 4 4 3 2 3 0 2 2 1 2 1 2 2 0 3 3 3 3 4 2 1 4 4 6 4 1 5 3 1
15 16 17 17 17 16 16 15 14 13 13 12 12 13 12 11 12 11 9 9 9 11 10 8 7 7 7 6 6 5 5 5 5 5 6 6 6 6 7 7 7 6 6 6 6 6 5 5 5 4 5 4 3 3 3 3 4 4 5 4 3 1 1 1 2 0 0 1 1 1 3 2 2 3 0 3 2 2 4 4 3 3 5 4 2
14 14 16 18 17 17 17 16 15 14 13 12 12 13 13 12 12 12 9 9 9 10 11 9 8 8 9 8 7 6 6 5 4 4 4 4 4 6 6 6 6 6 7 6 6 6 6 5 5 4 4 4 3 2 3 4 4 4 4 3 2 1 1 1 2 3 2 2 3 1 1 1 4 2 3 1 3 2 4 2 4 4 4 5 4
12 14 15 15 17 17 17 17 15 14 14 13 13 12 13 12 12 12 10 9 9 9 11 10 9 9 9 8 7 7 6 5 6 4 3 3 4 5 5 5 6 5 6 6 6 6 6 6 5 4 4 4 4 3 3 3 2 3 3 3 2 1 1 1 2 1 2 1 3 1 2 2 2 1 2 1 1 1 3 0 4 3 4 4 3
12 12 14 16 16 17 17 17 16 16 14 13 13 12 12 12 12 12 11 10 9 11 11 11 9 9 9 8 8 7 6 5 5 5 5 4 4 3 3 5 5 5 5 6 6 6 6 6 6 5 4 4 4 3 3 3 4 4 5 4 4 3 2 1 1 2 4 2 2 0 1 0 1 1 0 1 1 1 2 4 2 2 4 4 3
13 13 14 15 16 16 17 16 17 16 14 14 13 12 12 12 12 13 12 10 10 12 11 11 11 9 9 9 10 8 7 5 5 5 4 4 4 4 4 4 5 5 5 5 6 6 6 6 6 6 5 4 3 3 3 4 4 4 5 5 4 4 2 3 3 1 2 3 1 1 1 1 1 1 3 3 2 0 1 0 4 3 3 2 2
13 13 13 14 15 15 16 16 16 16 14 14 14 13 13 13 13 14 13 10 11 11 12 12 11 10 9 10 10 10 9 7 6 5 5 5 5 5 5 4 4 4 5 6 6 6 6 6 6 6 5 4 4 3 4 4 5 5 5 5 5 5 4 4 3 2 2 2 2 2 2 2 1 1 1 3 1 1 2 2 3 3 4 4 2
12 12 13 14 14 15 15 15 15 15 15 15 14 14 13 12 13 14 13 12 11 11 12 11 11 11 10 10 11 10 9 8 8 7 7 6 6 5 4 4 4 4 4 5 6 7 5 5 5 5 5 5 5 4 4 3 4 4 4 4 5 5 5 4 4 3 3 2 4 3 3 4 2 3 1 2 1 1 2 3 1 1 2 2 3
9 10 11 12 14 14 15 15 15 15 14 15 15 14 14 13 14 14 14 14 12 12 12 12 11 11 11 11 11 9 9 9 8 8 7 7 6 6 5 5 5 5 5 5 6 7 6 5 5 4 4 5 4 4 4 3 2 3 3 5 5 6 5 5 5 5 4 3 3 3 3 3 2 1 1 4 1 1 2 3 3 3 2 3 2
9 11 11 11 13 13 14 14 15 14 16 16 15 14 13 13 14 15 15 14 13 13 13 13 12 11 11 11 10 9 10 9 8 8 8 6 6 6 6 6 6 6 6 5 5 7 6 6 5 5 4 4 4 4 4 4 4 3 4 4 5 4 4 5 5 5 4 4 3 3 4 3 4 3 3 2 3 2 3 2 1 2 4 3 2
7 11 9 10 12 14 14 15 15 15 16 16 15 14 13 13 14 15 15 14 14 14 13 13 12 12 11 11 10 9 10 9 8 8 7 8 7 7 6 6 6 6 5 5 5 5 5 5 6 6 5 5 5 5 5 4 4 4 3 4 4 4 5 5 5 6 5 4 3 4 3 4 2 2 3 3 2 2 2 1 1 2 1 1 5
10 8 8 14 12 14 13 14 14 14 16 15 15 14 14 14 15 16 16 16 15 15 13 13 13 11 12 12 12 11 9 9 8 8 7 7 7 7 7 7 5 5 5 6 6 6 6 6 6 7 6 6 6 6 5 5 5 5 4 4 5 4 5 6 5 6 7 6 5 3 3 4 2 4 3 1 1 1 1 1 1 1 2 0 1
10 8 9 5 15 14 14 14 14 14 14 15 15 15 15 15 15 16 16 15 16 16 15 14 13 13 14 13 13 12 12 12 11 11 11 9 8 8 8 8 8 6 6 6 7 6 6 6 6 7 7 6 7 6 6 5 4 5 5 5 5 5 4 5 6 5 6 7 6 6 5 4 3 2 3 3 1 1 2 0 1 1 1 2 1
8 8 7 8 7 14 13 14 15 16 15 15 15 15 14 15 15 16 16 16 16 15 15 14 14 14 13 14 14 13 13 13 12 11 10 9 9 8 8 8 8 8 7 6 7 8 7 7 6 6 6 7 7 7 7 7 6 5 5 5 5 4 5 5 5 6 6 6 6 5 6 5 5 4 4 4 3 3 3 2 2 1 1 2 2
11 8 8 6 6 8 13 13 14 14 14 15 16 16 15 16 15 16 16 17 17 15 15 13 14 12 11 13 14 14 13 12 11 11 9 10 11 10 10 9 9 8 7 7 7 8 7 7 7 7 7 7 8 8 7 7 7 6 6 6 6 6 5 5 5 5 6 5 5 6 5 5 5 5 4 4 4 4 4 4 2 2 2 2 2
11 10 8 9 8 7 8 11 11 12 14 15 17 16 18 16 16 16 16 15 15 15 14 14 15 13 12 12 13 13 13 12 11 11 11 11 11 10 10 11 10 9 9 9 9 9 8 9 8 8 8 8 9 9 8 8 7 7 6 6 6 7 7 6 6 5 5 5 6 6 6 6 5 5 5 5 4 5 4 4 4 3 3 3 2
11 10 10 10 11 10 7 10 13 13 14 14 14 16 16 16 16 17 17 17 17 16 14 13 13 13 14 14 14 14 14 13 13 13 12 11 10 10 10 10 9 10 9 10 10 10 9 9 9 8 9 8 8 8 8 7 7 8 7 6 6 6 7 7 6 7 6 5 6 6 6 7 6 6 6 6 6 6 6 5 4 4 5 4 4
13 11 12 12 13 14 15 15 7 6 11 13 12 13 14 15 14 15 15 16 16 16 15 13 13 13 15 14 15 14 13 13 14 14 13 12 11 10 10 10 11 10 10 10 10 10 10 10 10 9 8 8 8 8 9 8 8 8 9 7 8 8 8 8 7 7 7 6 6 7 7 7 7 8 7 8 7 7 7 7 6 5 5 4 3
14 13 12 13 13 13 14 15 14 13 14 3 12 11 12 13 14 13 14 16 15 15 14 13 13 13 15 14 14 14 13 15 15 14 15 14 13 12 11 11 11 10 10 10 10 11 10 10 10 9 9 9 9 9 9 9 8 9 9 9 8 8 9 9 9 9 8 7 7 7 8 7 6 7 7 7 7 7 6 6 6 5 5 5 4
14 13 13 14 15 15 15 15 14 15 11 13 9 8 12 11 14 13 15 15 14 13 13 13 13 14 15 14 14 14 15 15 16 14 15 15 14 12 12 12 12 11 11 10 11 11 11 10 11 10 10 10 10 10 10 10 10 10 9 10 9 8 8 9 9 9 9 9 9 8 8 8 7 7 7 6 7 7 7 6 6 6 6 6 5
15 15 16 17 18 17 14 12 14 13 12 12 9 12 5 11 10 12 12 13 13 12 13 14 14 15 15 14 14 14 15 15 16 14 16 16 15 13 12 13 13 13 12 11 10 11 11 11 11 12 12 11 11 11 11 11 10 10 10 10 9 9 9 9 9 9 9 9 9 9 9 8 8 8 8 8 7 8 7 7 7 6 6 6 5
15 16 16 16 14 14 14 14 12 12 12 9 11 9 10 13 7 13 11 12 12 13 13 14 14 14 14 15 14 14 15 16 16 15 16 15 14 14 13 12 13 13 13 12 11 11 11 12 12 12 12 11 11 11 11 11 11 11 10 10 10 10 9 9 10 10 10 10 10 10 9 9 9 9 9 8 7 8 7 7 7 6 6 5 6
15 14 12 12 15 15 14 15 13 13 12 11 11 11 12 8 12 7 11 10 11 11 12 13 13 14 14 15 15 15 14 15 14 14 14 14 14 15 15 14 13 13 14 13 13 12 11 12 12 12 13 12 12 12 11 11 11 11 10 10 10 10 10 9 10 10 10 10 11 10 10 10 10 10 10 9 8 8 7 8 7 7 7 7 7
14 15 16 15 13 13 14 13 15 13 13 13 11 12 9 9 8 9 9 9 9 10 12 12 12 12 12 14 14 14 14 14 13 12 13 14 14 14 14 13 12 13 14 15 14 13 12 12 12 13 13 12 12 12 12 12 11 11 11 11 11 10 10 10 10 10 10 10 11 11 11 11 11 11 11 10 9 8 7 8 8 7 7 7 7
14 14 15 15 14 13 13 13 12 13 13 12 12 11 11 9 7 8 7 9 6 11 10 11 11 11 12 12 12 12 12 13 13 12 13 13 13 13 13 13 13 13 12 14 15 15 13 13 13 13 13 13 13 12 11 12 12 13 12 12 11 11 11 10 10 10 10 11 11 11 12 12 11 11 11 9 8 5 7 8 7 7 8 8 7
14 14 15 14 15 14 12 12 12 13 13 13 11 11 11 11 8 5 9 7 9 7 10 11 11 11 11 11 11 11 10 12 12 13 13 13 13 13 13 13 13 13 12 12 13 14 15 14 14 13 13 12 12 11 12 16 14 11 12 11 11 11 11 10 10 10 11 11 12 11 11 13 11 12 11 10 10 7 7 8 6 7 8 8 8
13 14 14 14 14 15 14 13 13 13 12 11 10 10 10 10 10 9 8 7 7 5 7 10 11 10 10 10 10 10 10 12 12 13 12 13 13 12 12 12 13 13 13 12 12 14 15 15 15 14 15 13 12 12 15 16 16 15 12 11 11 11 11 11 11 11 11 11 11 11 11 11 11 11 12 14 13 13 12 12 12 11 8 7 8
13 13 13 14 14 14 15 14 13 12 11 10 11 10 9 9 9 9 9 8 8 7 6 7 9 9 9 10 10 10 11 12 11 12 12 12 12 13 13 13 13 14 12 13 14 14 14 15 14 15 15 14 14 15 16 17 18 18 15 12 11 11 11 11 12 12 12 11 12 11 11 10 11 13 13 13 14 15 15 15 15 14 15 15 12
12 12 13 13 13 13 13 14 12 12 10 11 11 10 10 9 9 9 8 9 8 8 7 7 9 6 6 8 9 11 12 12 12 12 12 12 12 13 14 14 15 14 13 13 14 14 14 14 15 15 16 16 14 15 16 18 19 19 19 16 13 12 12 12 12 13 13 12 11 10 10 10 9 13 13 12 12 13 15 17 15 15 15 15 16
10 11 12 12 12 11 12 12 12 13 12 11 10 11 10 9 8 8 7 8 9 8 8 9 8 7 9 10 11 12 12 13 13 12 13 13 13 14 16 15 14 13 14 14 15 16 14 14 14 15 14 15 15 13 18 19 19 20 19 16 14 14 14 13 13 13 12 13 12 11 10 10 11 10 10 12 11 11 10 11 11 11 12 15 16
9 10 11 11 11 13 13 13 13 13 12 11 11 11 10 9 8 8 7 7 7 8 7 8 8 8 8 7 12 12 13 13 13 13 13 14 15 15 16 15 14 14 15 15 15 15 15 15 16 15 14 15 14 15 17 20 19 20 19 16 15 14 14 14 14 14 13 13 12 12 12 12 11 11 10 11 12 11 10 9 11 12 12 12 12
9 10 10 10 11 12 12 12 12 12 12 11 11 11 11 10 9 7 6 6 6 6 7 8 8 9 8 8 8 9 13 13 13 14 15 15 15 15 16 15 14 14 14 14 14 14 15 16 16 16 16 16 15 17 17 18 20 19 18 11 13 14 14 14 14 14 14 13 13 13 12 13 12 12 11 13 12 10 10 11 11 11 11 11 11
9 9 10 8 9 10 11 10 10 11 13 12 12 12 11 10 10 8 7 6 5 6 6 7 8 9 9 9 9 9 9 11 15 15 16 16 17 17 15 13 15 15 15 15 14 15 14 15 16 16 17 15 15 15 18 19 19 19 15 11 12 12 13 14 14 13 13 14 14 14 14 12 13 13 12 14 15 12 11 11 11 11 11 11 11
9 9 8 9 9 10 10 9 10 9 11 11 12 13 12 11 10 10 9 8 7 6 5 6 6 7 9 10 10 9 10 10 10 15 16 16 16 15 16 14 15 15 16 16 15 14 14 14 16 17 17 16 16 14 19 20 21 21 18 13 12 12 13 13 13 14 13 13 14 16 15 14 14 13 14 15 16 14 13 12 12 12 12 12 11
10 10 10 10 10 10 10 9 9 9 10 9 10 11 12 11 11 11 10 10 10 9 7 6 6 6 7 8 9 10 10 10 11 11 13 15 15 15 14 14 15 14 14 14 14 14 14 14 15 17 16 18 16 14 19 20 21 22 18 13 13 12 13 13 13 13 14 13 13 13 16 16 14 13 13 14 16 15 13 12 12 12 12 13 12
11 11 11 11 10 10 9 10 10 9 9 8 9 9 10 11 11 10 10 10 11 11 10 8 7 6 5 6 7 9 10 10 12 12 10 10 12 14 13 14 12 11 12 14 14 14 15 14 14 15 15 17 17 14 16 22 21 22 23 14 13 13 13 14 13 13 12 13 14 13 13 18 20 17 13 13 16 17 14 12 11 12 13 14 11
11 11 12 11 10 9 10 11 9 8 9 8 8 9 10 10 10 10 11 11 10 11 12 11 9 6 5 5 6 7 9 10 10 11 11 9 7 9 10 12 13 13 12 11 14 14 14 15 15 15 15 16 15 16 13 22 22 23 24 20 13 14 13 12 13 13 13 13 12 13 13 16 21 20 18 16 16 18 16 13 12 13 13 10 7
9 11 11 11 11 11 12 11 9 9 9 8 8 8 9 10 10 10 11 11 11 10 11 12 11 9 5 4 4 6 7 8 8 8 9 7 5 10 10 10 8 8 13 13 12 13 14 14 15 15 15 15 14 16 14 20 23 24 24 26 15 15 14 13 13 13 13 12 13 12 12 13 19 21 21 19 17 16 18 12 15 16 14 10 9
11 10 10 11 12 13 12 12 10 10 9 8 9 9 9 9 10 11 10 10 11 10 10 11 12 11 8 5 4 4 5 5 7 8 8 7 3 6 10 8 8 8 8 7 10 14 16 13 12 14 14 14 14 12 17 13 22 23 24 24 23 17 17 15 14 14 13 13 13 13 13 13 17 20 20 20 19 19 14 13 19 17 15 14 8
12 11 11 11 11 12 13 13 12 11 10 9 9 9 9 10 11 10 10 10 10 11 11 10 10 11 11 8 5 4 4 5 7 8 8 7 6 5 7 9 7 8 8 9 9 7 7 12 14 12 13 14 12 13 14 17 17 24 22 24 24 22 18 15 15 14 13 14 13 14 13 13 16 18 19 19 18 18 14 19 19 19 17 12 9
13 13 12 11 11 13 14 14 12 12 11 10 9 9 10 11 9 9 10 11 11 11 11 11 11 11 11 10 7 4 4 4 6 7 8 7 7 8 7 7 8 8 7 8 8 7 8 8 11 14 12 13 16 14 12 15 21 21 23 23 24 24 22 19 16 15 13 12 12 11 11 11 13 15 18 17 15 18 22 21 21 20 15 9 11
14 14 13 13 12 12 13 15 14 12 11 10 9 9 10 10 9 8 9 10 11 11 11 11 11 11 11 12 11 7 4 5 6 6 6 7 7 8 7 6 5 6 7 8 8 7 8 8 8 11 14 13 15 14 14 11 16 19 20 22 23 24 23 22 20 16 16 15 13 11 11 10 10 11 9 8 9 10 17 19 18 15 10 12 12
15 15 15 14 13 12 13 14 15 13 11 11 11 10 10 9 9 8 9 9 10 11 11 11 11 11 11 11 12 9 7 5 5 5 6 5 6 7 8 7 7 8 6 6 7 7 8 7 8 9 10 11 13 15 13 11 10 11 11 12 14 15 19 18 14 13 13 10 11 11 11 11 10 13 15 12 13 12 12 12 10 10 11 12 13
15 15 16 15 14 15 14 14 13 13 12 12 12 12 11 10 10 10 9 10 10 10 11 11 12 11 10 10 11 13 11 6 4 5 6 5 5 6 7 7 7 6 6 6 6 6 8 9 8 5 7 8 10 13 15 13 13 10 11 12 12 12 11 11 12 12 13 14 15 14 13 11 10 8 9 9 11 11 12 12 11 11 12 13 14
15 15 15 15 15 16 16 16 14 13 12 12 12 12 11 11 11 10 8 10 10 10 10 11 11 10 9 9 10 11 11 9 7 6 5 5 6 7 7 8 9 8 8 8 8 7 7 6 4 6 7 7 8 11 13 13 20 16 9 10 10 11 10 10 13 14 11 11 11 12 12 12 12 13 13 15 14 13 13 13 14 13 12 12 13
14 14 15 16 17 16 16 16 15 13 12 12 12 12 11 11 11 11 10 10 11 10 9 9 9 9 9 9 10 10 12 12 10 7 6 6 4 7 8 8 9 8 11 14 9 10 9 6 8 9 8 9 9 10 10 20 24 21 9 4 3 11 15 12 13 18 13 10 10 11 12 13 13 13 14 15 15 15 15 14 13 14 14 13 13
14 15 16 16 16 16 17 17 15 13 13 13 12 12 11 11 8 8 9 10 11 10 8 8 8 8 8 9 10 10 11 11 12 11 7 7 8 5 10 13 12 12 13 14 15 16 14 12 12 10 8 12 13 13 16 18 20 22 16 10 5 6 14 14 11 11 9 12 12 12 12 12 14 14 15 15 15 15 15 14 13 13 14 15 14
Wind_Direction
177 179 181 180 180 178 180 176 181 181 183 182 182 182 181 177 177 175 176 184 168 172 173 179 173 174 177 184 176 171 179 170 178 173 168 138 127 143 148 148 153 146 149 155 153 145 146 136 140 137 140 156 178 173 187 98 130 139 120 170 164 218 156 201 112 332 11 114 114 89 108 165 131 148 234 146 126 121 118 139 120 138 121 127 116
174 176 181 179 181 176 179 176 181 180 180 182 185 184 181 183 183 178 175 183 181 176 172 180 178 180 177 181 183 168 170 180 175 181 171 126 144 147 155 136 143 146 151 152 157 160 147 145 145 152 158 156 170 160 137 145 148 190 156 162 219 182 185 196 77 306 231 72 62 89 117 99 76 156 189 118 131 124 133 129 122 106 112 119 113
175 178 180 181 181 178 181 180 182 184 179 183 184 184 181 186 185 179 181 181 183 177 176 180 181 183 187 176 185 165 172 181 153 132 136 137 144 155 147 149 153 153 154 158 164 163 149 147 159 159 161 160 167 173 171 174 180 177 191 188 168 183 223 133 122 292 25 43 38 167 106 113 105 104 99 108 101 108 115 85 64 99 101 112 113
177 178 182 183 183 182 182 184 184 185 181 184 183 184 182 188 185 182 181 183 180 177 182 180 182 173 188 173 180 182 168 165 147 151 163 140 150 153 157 154 169 159 161 165 156 155 154 156 153 153 161 169 173 166 173 185 181 185 189 173 220 188 186 142 149 104 331 11 77 37 96 107 111 112 120 106 114 91 85 110 123 128 108 72 139
181 179 183 184 185 186 185 186 186 188 186 184 186 183 187 186 186 184 180 181 180 174 180 180 172 173 178 172 174 168 147 174 185 177 169 159 160 170 154 164 173 164 159 166 159 152 157 157 156 155 158 168 170 171 181 183 185 183 181 177 219 343 167 132 151 157 123 4 10 38 107 100 68 68 85 43 99 121 95 98 106 198 98 86 324
184 182 182 183 186 186 186 187 191 190 189 187 188 184 186 182 184 184 182 181 180 175 179 182 179 181 181 182 186 189 192 193 195 186 169 177 178 147 141 162 165 167 163 166 158 157 160 163 160 160 158 165 183 182 180 172 188 200 169 208 178 183 11 174 148 117 319 74 310 301 0 41 37 15 303 107 338 61 139 120 115 91 112 123 117
188 186 184 184 184 187 186 189 193 194 189 188 190 186 185 180 182 183 183 182 180 175 178 182 185 191 191 195 196 195 193 192 192 191 176 170 132 139 140 154 169 171 162 169 157 159 162 165 166 173 157 160 175 185 193 199 180 200 168 189 199 120 181 189 204 163 100 217 177 211 114 321 48 3 52 128 141 49 351 80 100 112 112 138 157
190 192 190 190 183 187 188 187 194 195 188 187 190 187 183 181 179 181 184 184 181 177 180 183 189 191 193 201 202 204 200 184 180 180 165 150 148 160 152 157 163 176 155 159 164 160 166 164 169 176 166 161 169 191 207 201 171 186 187 185 194 194 207 220 291 341 149 146 57 308 125 50 18 312 41 12 353 128 143 357 120 104 124 93 97
201 195 194 192 187 188 186 187 191 194 189 188 189 186 181 181 178 179 183 183 183 182 183 186 192 190 193 197 202 204 207 191 181 185 175 180 172 168 169 151 158 165 167 163 168 163 169 166 169 172 172 166 184 190 192 181 193 191 189 198 195 205 224 182 229 277 303 90 112 59 4 233 185 341 314 201 339 328 147 130 93 92 111 86 55
205 199 198 193 190 190 188 187 189 192 190 186 187 184 182 179 179 179 181 183 183 185 188 187 191 191 193 200 200 198 198 197 198 172 180 173 188 180 179 177 175 168 169 175 166 175 173 169 177 173 177 170 185 180 181 180 190 201 201 201 200 215 225 240 234 212 299 338 26 291 305 257 327 239 231 196 166 205 297 121 128 135 117 74 58
201 201 200 196 194 191 190 192 189 189 189 184 187 186 184 181 179 181 182 183 183 186 190 190 190 194 198 199 202 201 195 193 191 183 184 182 198 190 189 187 199 179 181 170 183 184 176 184 184 175 187 162 189 176 198 198 195 198 202 204 210 217 222 231 247 254 245 258 249 249 276 241 227 264 297 345 291 198 288 288 123 41 29 109 79
201 202 198 193 194 194 192 192 190 190 188 184 188 185 185 183 181 182 182 183 184 187 192 195 194 196 202 202 204 205 198 198 197 195 190 196 199 196 192 188 196 187 202 173 186 186 179 189 196 175 183 181 183 193 195 207 202 190 197 202 212 217 231 245 259 267 273 248 274 212 211 245 204 252 302 157 242 325 298 286 86 151 219 92 110
204 201 200 193 194 195 195 191 188 189 190 187 189 186 184 183 182 182 185 184 185 187 191 195 198 199 199 202 205 205 205 204 203 201 196 196 200 199 191 196 190 197 196 199 189 187 178 191 193 193 183 193 194 183 191 202 216 201 189 210 216 215 219 228 230 238 246 279 264 268 265 264 227 239 252 284 153 186 231 273 351 81 222 126 50
208 201 204 199 194 198 196 193 189 189 190 189 190 188 183 184 183 185 186 185 186 188 191 192 198 200 199 201 202 201 204 206 206 206 201 199 198 205 206 201 195 201 198 204 201 189 190 187 193 198 194 188 183 192 194 194 197 216 202 210 216 209 217 218 229 240 250 247 251 281 270 234 257 218 200 251 243 205 236 246 1 299 260 100 126
232 212 198 220 211 197 195 193 191 191 193 191 191 188 183 184 183 186 185 184 186 189 190 193 196 199 201 201 202 202 203 204 208 213 206 201 201 201 204 210 202 200 201 197 207 198 204 189 193 203 196 199 191 199 202 197 198 214 209 207 222 197 203 213 219 229 236 240 253 243 272 272 271 301 264 207 261 227 245 295 265 297 280 178 145
7 1 214 214 215 199 197 196 194 194 193 195 192 189 188 185 184 186 185 184 187 188 190 193 196 195 197 200 203 204 205 205 206 208 210 207 204 208 197 206 206 198 193 194 193 198 202 204 198 206 205 203 200 203 206 206 197 210 209 207 213 202 201 208 224 229 235 237 237 254 258 273 227 247 281 301 267 350 330 293 193 223 309 250 53
2 340 351 267 215 211 201 198 193 197 200 197 192 191 192 187 187 187 188 186 187 188 191 192 194 195 196 199 201 203 204 207 207 205 210 206 212 210 205 205 204 205 198 196 199 196 202 209 212 214 203 212 209 206 208 211 201 214 212 211 217 210 204 213 224 222 237 232 223 218 237 244 260 294 270 258 195 272 258 223 321 319 10 295 302
357 359 336 335 246 211 210 203 197 197 196 200 199 195 193 194 191 188 187 188 188 189 192 191 193 196 196 197 200 205 208 211 214 212 211 213 208 214 215 203 208 203 206 205 201 198 204 206 216 220 216 211 215 210 207 210 208 222 220 218 220 215 209 218 222 227 217 228 236 232 216 231 224 228 224 240 214 223 223 216 210 237 289 306 347
9 9 1 335 338 241 210 213 205 200 201 200 194 196 197 198 199 197 194 192 191 192 191 191 192 195 197 197 198 201 207 211 214 215 213 212 214 207 214 211 205 203 199 206 199 204 202 204 211 215 212 216 213 219 211 213 211 222 220 219 210 215 220 221 221 223 232 218 226 235 231 238 241 242 247 218 218 223 222 234 199 245 258 285 300
16 13 10 360 356 331 245 211 219 211 211 203 197 199 204 203 199 200 198 197 199 199 192 193 193 197 196 197 197 199 201 207 208 209 212 211 211 214 212 211 210 205 200 198 205 211 207 210 206 214 215 209 210 214 214 209 215 220 224 225 210 206 219 226 231 221 230 213 213 224 226 231 229 236 242 248 229 235 248 236 218 216 226 247 258
27 19 22 17 13 5 330 215 202 212 204 203 203 203 206 208 205 203 198 198 200 200 197 196 197 197 196 195 195 195 198 201 205 205 212 213 212 215 216 217 206 213 206 203 205 210 211 212 218 214 218 211 213 217 216 216 212 217 223 231 234 209 218 224 226 229 232 223 219 222 222 221 228 233 233 236 233 221 217 231 238 232 237 222 231
30 28 28 33 23 13 17 21 28 237 213 201 210 210 211 210 210 205 204 203 200 198 198 197 198 197 198 198 199 196 197 199 203 204 209 212 214 211 212 213 216 210 213 211 207 208 207 212 214 217 222 223 211 216 221 216 216 218 221 216 219 223 221 227 228 226 225 232 219 224 225 221 214 225 233 235 237 237 216 225 218 230 238 232 213
30 30 34 41 41 29 20 19 22 17 9 294 203 232 214 210 210 206 209 206 205 200 196 195 196 198 198 199 198 198 197 200 204 206 210 212 210 211 208 211 216 215 208 216 211 213 208 208 214 213 211 219 218 217 221 224 220 219 222 229 223 214 218 222 221 224 226 222 226 222 223 220 214 214 219 235 239 244 247 240 237 233 247 253 230
30 31 34 42 44 39 27 16 21 20 7 3 357 235 216 216 209 208 209 210 209 202 196 193 198 200 200 199 199 200 200 201 205 209 212 214 213 208 206 211 214 219 214 209 217 215 208 205 208 209 208 212 213 217 222 222 222 222 223 224 230 228 221 221 225 224 221 221 223 224 227 224 220 217 222 228 233 235 231 238 244 245 249 249 261
26 27 28 36 40 37 34 21 21 20 17 9 358 358 279 217 216 219 207 209 206 212 200 195 198 203 203 202 203 203 205 206 208 210 212 213 214 213 205 209 212 217 220 212 208 214 212 207 209 208 208 211 214 216 220 224 222 222 223 225 224 224 226 227 228 226 227 226 223 225 223 223 222 225 221 223 224 223 231 232 231 232 236 240 240
29 27 27 29 29 32 30 29 26 24 20 9 9 3 6 357 249 211 222 212 209 205 207 201 200 203 203 204 204 207 209 209 210 213 213 212 213 214 211 205 211 214 216 218 209 209 210 209 213 212 210 211 213 215 217 223 225 222 221 224 223 225 225 228 228 226 225 224 226 224 226 224 222 223 226 225 224 220 221 230 235 237 238 235 236
36 34 30 26 27 22 20 21 27 26 17 21 13 11 10 359 357 309 222 221 214 208 208 205 206 206 204 205 203 206 209 212 210 214 215 213 214 213 213 211 207 211 212 216 214 211 211 212 211 213 213 210 210 213 215 217 224 228 225 223 228 223 224 227 227 231 230 226 225 226 224 224 223 223 224 224 220 219 221 226 224 228 232 233 237
36 32 30 29 25 20 18 15 20 19 15 18 23 17 3 360 357 356 331 231 210 218 210 211 209 211 206 205 205 204 207 210 212 211 215 217 214 214 213 213 209 209 212 214 218 214 211 214 214 216 216 215 209 211 212 214 218 223 224 224 227 233 230 226 229 229 233 234 228 227 228 223 224 221 221 222 222 219 218 223 220 222 224 226 236
36 31 30 26 26 23 15 15 15 11 9 10 16 14 12 0 360 1 355 346 274 214 222 218 215 214 212 208 207 206 207 206 209 209 213 216 217 215 213 212 210 213 213 215 216 219 216 214 216 216 217 216 215 212 211 210 211 214 223 226 226 228 231 234 235 233 230 233 235 232 229 230 221 218 220 230 230 225 223 219 222 221 221 226 233
34 29 26 23 25 23 18 13 11 9 6 6 4 8 9 9 349 357 355 344 352 293 228 228 226 221 216 210 206 209 207 207 205 208 209 211 216 217 215 213 213 213 215 215 216 218 221 217 216 215 215 216 217 216 207 204 204 211 213 223 225 228 233 235 234 236 239 234 233 238 234 224 221 202 200 207 226 236 244 252 233 212 219 227 229
32 30 24 22 21 19 18 14 12 6 4 359 353 353 358 13 8 359 338 340 329 327 266 234 238 232 223 217 210 208 208 206 207 210 209 211 213 216 217 217 217 217 217 213 215 217 219 221 217 215 213 215 216 217 199 192 198 206 212 216 222 225 226 230 233 235 239 241 240 234 239 215 199 199 199 200 209 216 219 231 250 265 272 243 224
26 24 22 19 17 19 13 11 10 5 3 356 351 349 354 353 355 358 358 342 333 319 294 262 243 239 248 236 224 213 209 209 209 211 213 212 213 214 217 217 217 218 216 217 215 216 219 221 221 219 218 217 219 214 191 189 194 199 206 215 219 222 226 228 232 235 236 237 239 241 236 235 222 216 218 203 207 212 216 222 227 232 240 254 264
18 19 19 16 14 13 12 6 6 7 5 359 353 348 349 346 340 349 354 358 354 343 324 295 285 222 204 238 237 238 230 221 213 213 214 214 213 215 217 219 219 219 218 216 219 218 218 220 224 223 225 223 223 207 189 189 192 196 200 210 224 225 226 230 233 232 235 236 237 237 242 240 238 191 203 217 209 208 214 219 222 225 235 237 242
16 13 14 13 9 8 8 3 4 1 7 359 355 348 345 342 339 341 4 5 4 352 350 347 346 309 228 215 221 222 235 236 225 217 215 216 215 215 219 220 222 220 219 220 220 220 219 218 220 222 225 229 229 203 187 190 193 195 198 200 221 227 230 235 235 235 236 234 231 234 230 231 238 224 212 215 217 212 203 208 217 224 228 228 229
12 9 7 8 4 4 1 359 2 358 359 358 356 354 345 341 339 346 354 7 9 5 358 349 340 347 348 261 230 233 230 227 227 226 222 218 217 219 220 223 223 220 218 218 220 220 220 219 220 221 222 226 228 213 186 190 192 194 195 195 218 226 232 233 233 235 236 238 234 231 231 231 228 229 226 213 216 217 216 209 209 216 221 228 225
9 2 2 2 2 0 359 355 353 353 357 356 354 352 350 343 339 344 358 359 3 5 0 353 344 343 340 346 328 274 246 237 230 225 228 229 224 217 218 219 225 226 221 219 220 223 221 220 220 221 223 225 226 206 188 189 191 193 185 194 213 225 231 234 233 233 233 231 232 232 231 230 230 228 217 202 210 218 219 221 225 227 227 228 229
1 358 354 3 358 352 353 347 353 353 356 351 350 348 347 343 342 345 341 3 12 9 1 353 347 337 336 333 322 322 310 258 239 237 234 233 235 232 225 218 222 226 227 223 221 220 222 224 221 220 223 227 231 203 185 187 190 184 176 202 207 218 225 230 235 233 232 232 230 227 227 230 229 228 215 191 199 204 225 228 230 233 237 239 240
348 343 340 353 353 345 342 340 343 355 355 347 345 345 340 345 346 343 343 348 355 10 2 351 334 329 331 327 320 315 306 303 275 244 240 239 239 236 236 228 223 223 227 228 222 222 223 223 224 222 218 223 228 205 182 187 187 177 184 197 206 213 220 225 231 232 234 234 231 226 225 228 231 229 210 187 192 193 219 226 231 235 238 240 240
336 332 338 343 340 331 326 328 338 352 350 342 346 343 342 339 343 343 341 344 343 342 346 343 326 325 320 317 322 315 307 302 300 290 263 253 241 240 240 236 233 231 231 230 229 228 226 224 224 225 218 222 228 210 179 187 185 181 188 201 206 212 217 221 223 227 228 232 235 224 217 224 229 232 211 187 187 191 216 222 226 233 238 241 240
327 328 342 332 318 315 319 329 332 347 332 340 342 342 340 338 335 333 335 341 342 337 331 322 321 316 309 321 318 321 317 309 305 309 320 307 299 277 260 246 241 247 242 233 232 233 233 230 227 225 223 220 225 227 185 186 184 185 189 198 207 211 217 218 220 224 223 226 229 232 216 208 220 225 219 190 188 195 213 222 223 230 235 239 239
329 335 334 320 319 316 320 317 325 325 325 334 340 334 335 335 332 328 335 335 335 331 328 322 311 300 314 316 324 326 322 316 305 307 315 340 345 299 290 300 284 256 246 246 245 238 235 235 232 229 230 224 220 222 189 183 185 186 191 196 207 211 216 217 221 221 226 227 225 226 235 204 205 214 215 200 191 199 209 221 225 231 232 243 259
333 329 321 324 320 321 314 311 317 315 317 330 328 325 324 329 327 332 335 331 327 327 325 323 313 305 302 300 312 315 315 311 315 321 321 327 332 311 288 246 243 275 298 295 282 260 250 243 237 234 234 231 221 208 214 181 186 189 190 197 203 211 209 217 221 227 228 231 230 227 230 210 196 206 211 208 200 196 207 218 231 235 242 243 250
327 323 330 327 322 319 317 314 312 316 322 313 316 314 318 321 321 330 330 327 326 321 323 320 315 307 302 298 299 308 312 314 316 316 312 307 307 314 314 287 255 250 235 248 273 280 276 269 264 248 235 232 231 209 208 189 189 189 193 195 204 207 200 211 223 227 227 232 235 235 234 209 189 201 206 208 204 203 200 220 229 234 235 240 243
320 323 327 330 316 315 315 315 313 311 306 305 298 303 308 314 317 327 325 325 321 325 320 316 316 313 311 305 308 309 313 311 303 305 300 292 255 207 239 264 261 245 241 234 227 230 267 286 281 284 273 249 228 231 204 198 185 193 192 195 201 209 203 210 219 230 228 234 236 235 234 214 192 196 200 203 205 201 211 218 224 229 232 232 236
319 320 322 320 318 315 312 308 308 304 301 297 294 290 297 301 315 319 322 322 322 321 320 318 318 317 315 311 306 310 315 330 316 305 303 291 269 271 255 245 249 239 241 253 248 230 232 248 271 279 276 269 254 231 229 193 186 189 195 196 199 204 212 213 219 228 232 233 236 233 233 219 195 194 198 199 203 206 212 218 218 222 222 227 228
314 314 318 318 311 306 306 307 307 304 298 295 291 286 288 300 306 311 314 320 320 318 317 318 316 316 316 315 311 308 326 327 311 306 308 309 312 300 283 270 265 262 240 227 233 226 230 230 245 264 277 283 285 285 249 216 186 189 194 196 198 201 209 213 218 228 227 235 244 247 238 228 204 193 191 200 210 206 213 221 224 219 216 222 224
311 313 313 310 310 305 302 304 305 307 303 298 294 286 284 289 300 308 313 318 319 315 315 315 316 315 316 313 310 315 324 314 307 306 302 309 310 306 305 294 275 269 270 260 247 244 232 222 222 233 254 270 274 266 264 250 197 194 193 192 198 206 211 214 220 232 239 245 240 242 240 230 231 198 199 204 213 216 204 212 221 217 221 223 221
307 306 307 305 303 303 302 301 299 301 299 295 292 290 287 290 296 303 316 315 310 317 316 315 315 315 313 315 313 315 309 303 318 315 311 311 312 310 302 300 309 302 294 275 258 256 247 236 237 224 251 263 278 283 280 279 252 202 197 193 189 193 194 196 209 217 218 226 232 231 230 238 235 227 213 220 228 229 231 225 220 214 215 220 224
304 306 305 302 302 300 299 297 294 295 293 288 285 285 287 286 286 292 306 308 306 308 311 309 310 309 311 312 310 312 310 313 312 306 300 308 312 309 301 297 296 314 322 324 310 286 265 280 274 246 243 248 256 271 276 304 300 291 231 199 193 195 198 196 210 211 212 222 228 234 239 233 232 233 238 240 235 234 233 229 228 224 218 214 215
302 300 298 297 296 294 294 295 295 295 289 284 281 279 279 276 282 288 297 301 306 306 307 308 308 308 311 317 317 313 310 310 306 303 308 304 265 232 260 283 295 292 285 283 272 273 284 304 282 266 250 245 238 253 301 308 292 278 270 250 201 168 181 201 191 192 202 219 218 227 228 231 233 236 237 237 235 236 234 231 228 222 224 224 217
303 301 300 297 295 294 292 291 291 291 284 278 274 274 273 270 276 288 292 294 300 305 303 303 307 307 320 315 308 306 307 307 305 304 303 305 310 272 212 228 244 261 267 263 265 263 263 251 249 265 248 246 254 257 256 253 262 266 263 243 210 167 174 195 166 154 195 217 228 228 229 232 236 239 241 240 239 237 236 234 231 226 224 224 224